IRIDIUM 160

Last updated on Sun Jun 21 2026 00:03:14 GMT+0000 (Coordinated Universal Time)

1 43569U 18061A 26171.40924192 -.00000006 00000+0 -92041-5 0 9999 2 43569 86.3958 55.4502 0002176 85.4709 274.6735 14.34217420413839
UTC large
Height (km)
Speed (km/s)
/
Latitude / Longitude
Inclination (degrees)
Orbital Period (minutes)
Azimuth
Elevation
Range (km)
Doppler Factor

Next 0 passes for location: London (51.5072 / 0.1276)

No passes found over London.
IRIDIUM 160